User: anonymous   Login
Location: Unspecified
(0.0000°N, 0.0000°E)
Time: 06:43:40
(UTC+00:00)
Language:

JUGNU - Orbit

View from above orbital plane
View from above orbital plane
View from above satellite
View from above satellite

Ground track
Ground track

The orbit data is extracted from the following two-line orbital elements,

1 37839U 11058B   17087.47232594 +.00000327 +00000-0 +32934-4 0  9991
2 37839 019.9606 219.8893 0019073 013.7708 041.1534 14.12576180282161
Epoch (UTC): 28 March 2017 11:20:08
Eccentricity: 0.0019073
inclination: 19.9606°
perigee height: 837 km
apogee height: 864 km
right ascension of ascending node: 219.8893°
argument of perigee: 13.7708°
revolutions per day: 14.12576180
mean anomaly at epoch: 41.1534°
orbit number at epoch: 28216

The dashed part of the orbit path shows where the satellite is in the earth's shadow,  

DLR